Temp
47 47 47 46 47 48 48 47 48 48 48 48 48 48 48 48 48 44 40 42 37 30 29 35 36 30 32 30 24 31 30 31 31 28 27 26 24 29 28 32 31 29 27 27 29 25 21 40 42 36 38 37 34 34
47 47 47 46 47 47 47 47 47 47 47 47 48 48 48 48 48 46 38 43 41 33 30 36 38 39 38 37 32 33 31 32 33 31 30 33 28 27 28 23 35 27 31 28 31 29 36 36 36 37 37 34 36 34
46 46 46 47 46 46 47 47 47 47 47 47 48 48 48 48 48 47 40 39 39 35 34 30 33 40 41 40 41 30 34 38 35 37 34 33 29 33 27 26 28 29 34 30 33 33 32 34 35 34 34 32 34 34
46 46 46 46 46 46 46 46 47 47 47 47 47 47 48 48 49 48 39 39 37 32 26 27 40 35 41 41 39 40 39 41 38 37 34 32 29 37 31 29 24 27 30 28 32 34 34 31 32 32 31 32 30 31
46 46 46 46 46 46 46 46 46 46 47 47 48 48 48 48 48 46 42 43 42 35 23 27 34 39 41 38 37 38 38 37 33 29 33 28 34 35 33 31 22 28 26 25 26 32 31 29 30 31 29 28 30 29
45 45 45 45 46 46 46 46 46 46 47 47 48 48 49 48 48 43 33 41 45 42 32 21 32 34 38 37 36 35 35 35 34 35 34 34 39 35 29 24 26 28 30 32 31 32 31 30 29 29 27 27 28 27
45 45 45 45 45 46 46 46 46 46 47 47 48 49 49 48 44 38 36 39 46 42 33 27 25 34 37 37 34 34 37 36 33 36 31 33 34 34 27 21 26 27 30 31 31 34 30 29 27 30 29 28 27 25
45 45 45 45 45 45 46 46 46 46 47 47 48 49 48 47 46 41 41 46 45 37 36 27 25 28 38 30 31 34 32 34 35 34 33 34 32 30 22 25 26 27 29 30 30 31 30 30 30 29 29 28 24 23
44 45 45 45 45 45 45 46 46 47 47 48 48 48 44 40 37 40 46 47 43 38 29 29 26 21 38 35 36 35 36 27 34 32 34 32 25 18 23 24 24 25 25 25 29 29 28 26 25 25 26 26 24 22
44 44 44 45 45 45 45 46 46 47 47 48 43 36 30 37 46 45 39 33 34 34 36 24 28 26 35 33 32 29 33 32 30 33 31 24 17 24 25 25 25 25 24 26 27 24 25 23 23 23 22 23 22 21
44 45 45 45 45 45 46 46 46 47 47 40 34 33 41 46 39 35 30 30 30 29 33 32 29 26 37 31 30 33 31 32 28 31 29 22 16 22 25 24 24 24 25 24 25 24 24 24 23 22 20 20 19 18
44 44 45 45 46 46 46 46 47 45 41 41 40 42 40 35 32 30 27 29 28 26 29 29 30 32 35 35 32 33 29 31 25 31 24 13 18 24 23 23 22 23 23 22 23 22 22 22 21 20 18 16 14 12
44 45 46 46 46 47 47 46 47 46 46 43 38 32 33 31 26 20 21 25 24 23 30 33 32 33 34 35 32 32 28 27 30 17 14 13 20 22 21 22 22 23 22 21 19 19 18 15 15 14 11 8 9 8
46 46 46 46 46 47 47 47 46 46 40 34 30 24 26 23 20 22 24 21 25 32 32 34 32 32 32 31 31 20 24 29 20 13 13 15 17 18 19 20 17 12 12 12 9 10 9 7 4 3 1 -1 3 1
44 44 44 44 45 46 46 45 44 39 34 29 28 22 16 21 23 29 31 31 31 33 34 32 31 32 26 24 25 26 23 20 15 12 7 12 16 16 13 13 10 7 5 7 4 5 1 4 5 3 -0 0 3 -1
44 43 41 43 43 43 43 41 38 37 32 28 22 18 23 22 25 27 29 29 32 32 33 30 25 21 20 23 23 19 17 13 9 3 8 14 12 12 12 13 11 9 7 4 2 4 4 2 4 2 1 -0 -3 -2
44 39 42 43 43 43 43 35 33 29 27 23 17 20 16 17 23 25 27 28 31 32 26 23 19 21 25 17 15 15 11 7 6 10 11 11 13 11 8 8 9 10 9 6 4 5 4 2 3 8 8 5 8 7
39 41 42 42 41 40 37 34 31 28 21 21 18 19 22 18 23 24 24 27 30 27 25 21 25 14 10 15 9 7 7 7 8 13 9 5 7 9 12 10 10 11 10 7 9 8 8 8 13 13 13 13 12 12
41 42 43 43 41 35 32 30 31 21 20 20 21 21 19 17 24 25 24 26 27 25 24 18 12 8 7 5 4 4 10 10 14 11 9 7 12 13 12 13 12 10 12 12 16 14 14 16 14 12 14 16 12 12
43 43 43 44 43 32 30 27 31 25 19 21 20 20 19 17 20 22 23 25 26 23 17 11 7 12 8 8 9 16 15 18 18 15 12 12 12 14 11 14 12 15 17 18 14 13 13 11 10 9 8 8 3 2
39 39 42 40 34 32 28 26 25 25 25 20 21 22 19 21 17 16 17 23 18 15 10 10 18 18 15 16 20 20 18 19 13 13 14 13 13 14 14 13 15 13 11 8 7 5 6 5 5 6 -5 -9 -11 -10
37 41 36 38 32 30 27 27 26 26 24 25 23 23 15 11 11 13 19 15 12 11 11 17 20 18 18 17 17 19 18 19 17 15 14 15 13 12 9 7 11 5 5 3 5 -0 -0 3 1 -1 -6 -9 -6 -4
41 39 33 32 26 22 21 29 22 25 17 20 21 16 11 10 14 22 11 13 10 15 15 19 19 21 21 20 21 21 22 21 16 15 12 10 9 3 7 5 3 3 2 4 5 1 -2 -2 -4 -10 -11 -9 -13 -12
37 29 26 25 26 20 25 19 26 23 22 19 16 11 12 10 17 10 7 10 12 17 19 19 19 18 19 18 15 15 16 16 12 8 10 12 9 7 7 6 5 3 4 7 4 -3 -5 -12 -10 -8 -15 -14 -17 -15
26 20 21 18 22 20 17 14 12 15 10 9 9 7 10 15 5 2 7 8 11 12 12 14 16 16 10 8 11 11 14 17 14 10 5 10 7 7 6 7 4 5 3 -4 -6 -8 -9 -15 -16 -15 -12 -17 -11 -12
14 14 15 16 15 15 15 10 6 7 6 5 7 13 12 5 2 2 9 6 10 7 7 11 10 12 12 14 11 10 10 14 14 7 8 10 9 4 -0 -2 -1 -0 -1 -8 -10 -12 -11 -11 -9 -6 -8 -8 -10 -16
6 7 18 21 19 20 12 11 15 9 4 5 6 5 2 1 -1 6 9 7 10 4 12 13 16 14 13 10 11 10 10 10 10 9 7 7 6 5 2 -3 -2 1 -2 -8 -13 -12 -12 -13 -15 -15 -16 -18 -17 -15
11 11 10 5 7 10 0 -1 -2 -0 4 13 10 -2 1 1 3 8 10 14 13 14 12 11 12 13 10 8 7 6 4 5 5 5 5 4 0 -4 -6 -7 -1 1 -12 -16 -16 -19 -16 -16 -16 -17 -18 -17 -17 -15
5 5 10 0 2 3 4 -0 1 8 12 7 -1 -2 3 8 6 6 15 14 13 14 9 6 1 1 2 0 -3 -4 -1 2 -1 -6 -10 -10 -11 -3 -10 -14 -15 -17 -19 -13 -6 -6 -10 -11 -14 -17 -17 -19 -17 -21
5 4 2 -5 -4 -2 0 2 1 3 9 6 8 10 8 6 11 14 12 8 7 5 1 5 -0 4 2 2 -4 -4 -14 -16 -8 -2 -5 -7 -2 -8 -13 -14 -15 -20 -22 -18 -16 -13 -5 -15 -12 -18 -20 -20 -24 -24
7 1 0 0 -1 0 2 0 2 3 -3 -4 -7 -3 -1 5 12 13 11 9 8 8 5 -1 -7 -10 -0 -3 -6 -5 -4 -7 -14 -12 -9 -6 -7 -12 -17 -19 -21 -24 -23 -22 -21 -21 -20 -21 -24 -23 -22 -20 -18 -23
-4 -7 -2 -4 0 2 0 -6 -4 -2 -1 1 -2 -10 -5 -2 -4 3 7 8 8 5 -0 3 1 -4 -9 -10 -10 -9 -2 -4 -10 -7 -4 -8 -16 -21 -20 -20 -25 -24 -23 -23 -24 -24 -22 -21 -22 -23 -23 -22 -22 -23
-8 -9 -8 -3 0 -2 -2 -2 -3 -1 -2 -0 -1 -11 -14 -7 -3 -1 5 5 5 6 2 -7 -6 -3 -2 -2 -2 -3 -4 -9 -9 -1 -7 -9 -14 -16 -24 -26 -26 -24 -21 -23 -25 -25 -22 -22 -21 -23 -23 -24 -22 -20
MSLP
1013.56 1013.81 1014.15 1014.59 1014.83 1014.99 1015.18 1015.46 1015.69 1015.87 1016.03 1016.23 1016.32 1016.38 1016.51 1016.68 1016.90 1017.46 1017.95 1018.32 1018.87 1019.47 1018.73 1017.95 1017.57 1017.43 1017.29 1017.18 1016.88 1015.69 1014.63 1014.09 1013.57 1013.25 1013.04 1012.58 1011.84 1011.26 1011.08 1010.72 1010.65 1011.17 1011.68 1011.71 1011.61 1011.49 1010.79 1009.56 1008.31 1008.72 1009.59 1010.07 1010.25 1009.60
1012.97 1013.27 1013.69 1013.91 1014.14 1014.45 1014.74 1015.00 1015.14 1015.34 1015.44 1015.54 1015.64 1015.80 1015.98 1016.20 1016.39 1016.92 1017.73 1018.05 1018.69 1019.18 1018.61 1017.91 1017.30 1016.91 1016.91 1016.72 1016.99 1016.43 1016.27 1015.62 1015.27 1014.62 1013.86 1013.15 1012.73 1012.50 1012.26 1011.94 1011.51 1011.82 1012.20 1011.91 1011.58 1011.74 1011.66 1011.48 1011.40 1011.33 1011.06 1011.57 1011.57 1011.45
1012.47 1012.73 1013.06 1013.32 1013.65 1013.96 1014.22 1014.41 1014.54 1014.61 1014.80 1014.86 1014.99 1015.17 1015.37 1015.60 1015.87 1016.42 1017.19 1018.02 1018.78 1018.83 1018.26 1017.88 1016.36 1015.48 1015.78 1015.83 1016.16 1016.75 1016.05 1015.52 1015.52 1015.52 1014.70 1013.83 1013.18 1012.75 1012.53 1013.00 1013.15 1013.10 1013.05 1012.61 1011.78 1012.57 1012.75 1012.96 1013.20 1013.13 1013.20 1013.31 1013.44 1013.39
1011.88 1012.13 1012.46 1012.80 1013.10 1013.38 1013.61 1013.73 1013.81 1013.97 1014.15 1014.20 1014.28 1014.31 1014.53 1014.92 1015.36 1015.99 1016.77 1017.40 1017.91 1018.57 1018.64 1017.01 1015.73 1015.46 1014.43 1014.77 1015.45 1015.73 1015.63 1015.45 1015.55 1015.39 1014.88 1014.16 1013.73 1013.06 1013.00 1014.03 1014.70 1015.23 1014.49 1013.93 1013.06 1013.27 1013.56 1014.37 1014.87 1014.88 1014.80 1014.89 1014.88 1015.04
1011.26 1011.53 1011.86 1012.19 1012.48 1012.75 1012.94 1013.05 1013.20 1013.35 1013.42 1013.47 1013.46 1013.45 1013.54 1014.17 1014.77 1015.63 1016.40 1016.79 1017.13 1017.84 1017.91 1016.97 1015.73 1014.58 1014.18 1014.51 1015.13 1015.36 1015.64 1015.76 1015.81 1015.58 1014.90 1014.26 1013.51 1013.30 1013.89 1014.83 1016.23 1016.57 1016.22 1015.48 1015.01 1014.78 1014.78 1015.94 1016.39 1016.59 1016.27 1016.35 1016.41 1016.51
1010.49 1010.91 1011.26 1011.54 1011.82 1012.02 1012.20 1012.35 1012.54 1012.68 1012.72 1012.79 1012.82 1012.80 1012.97 1013.57 1014.40 1015.49 1016.21 1016.61 1016.58 1017.27 1017.84 1017.40 1015.66 1014.74 1014.29 1014.46 1014.85 1015.31 1015.45 1015.63 1015.61 1015.30 1014.71 1014.18 1013.81 1013.93 1014.55 1016.13 1017.74 1017.59 1017.13 1016.16 1016.23 1016.17 1016.38 1017.15 1017.55 1017.85 1017.68 1018.01 1018.15 1018.39
1009.80 1010.25 1010.58 1010.82 1011.05 1011.28 1011.48 1011.59 1011.87 1012.04 1012.13 1012.20 1012.24 1012.29 1012.53 1013.15 1014.07 1014.87 1015.11 1015.03 1015.72 1017.16 1017.67 1017.32 1016.24 1014.74 1014.30 1014.43 1014.90 1015.17 1015.15 1015.19 1015.23 1014.94 1014.71 1014.43 1014.65 1015.09 1016.00 1017.39 1018.33 1018.33 1017.95 1017.43 1017.22 1016.90 1017.38 1017.74 1018.52 1018.75 1018.88 1019.30 1019.58 1020.08
1009.15 1009.50 1009.79 1010.03 1010.25 1010.49 1010.66 1010.91 1011.20 1011.38 1011.55 1011.72 1011.81 1011.96 1012.42 1013.15 1014.05 1014.71 1014.77 1014.97 1015.94 1016.84 1017.18 1017.00 1016.12 1015.28 1014.31 1014.55 1014.88 1014.85 1015.01 1015.08 1014.79 1014.69 1014.62 1014.80 1015.60 1016.33 1017.59 1018.82 1019.22 1019.20 1018.75 1018.43 1018.35 1018.42 1018.73 1019.10 1019.34 1019.67 1020.06 1020.44 1020.77 1021.19
1008.38 1008.65 1008.91 1009.14 1009.35 1009.53 1009.82 1010.15 1010.47 1010.76 1011.02 1011.28 1011.55 1012.06 1012.74 1013.51 1013.88 1014.19 1014.66 1015.40 1015.89 1016.54 1016.48 1016.47 1016.08 1015.23 1014.29 1014.41 1014.49 1014.75 1014.62 1015.02 1014.81 1014.75 1015.02 1015.62 1016.79 1018.17 1019.28 1019.89 1020.20 1020.25 1020.12 1019.88 1019.63 1019.71 1020.03 1020.31 1020.70 1020.94 1021.24 1021.48 1021.80 1022.48
1007.44 1007.65 1007.83 1008.06 1008.30 1008.59 1008.87 1009.25 1009.71 1010.11 1010.53 1011.13 1011.74 1012.64 1013.26 1013.40 1013.52 1014.40 1015.61 1016.08 1016.09 1016.02 1015.80 1015.84 1015.39 1015.03 1014.49 1014.38 1014.63 1014.81 1014.70 1014.73 1014.57 1014.58 1015.44 1016.68 1018.46 1019.65 1020.37 1020.96 1021.25 1021.24 1021.15 1020.73 1020.41 1020.89 1021.09 1021.46 1021.85 1022.33 1022.62 1022.88 1023.27 1024.04
1006.29 1006.36 1006.52 1006.76 1007.05 1007.40 1007.83 1008.33 1008.92 1009.54 1010.26 1010.93 1011.79 1012.57 1012.70 1013.08 1013.62 1014.52 1015.21 1015.52 1015.66 1015.63 1015.17 1014.66 1014.59 1014.40 1014.19 1014.18 1014.29 1014.68 1014.43 1014.44 1014.50 1014.85 1015.82 1017.64 1019.24 1020.25 1021.14 1021.77 1022.17 1022.19 1022.14 1022.10 1022.22 1022.55 1022.65 1022.88 1023.11 1023.47 1024.10 1024.67 1025.23 1025.85
1005.09 1004.98 1005.01 1005.20 1005.54 1006.01 1006.65 1007.40 1008.10 1009.02 1009.59 1010.32 1010.87 1012.10 1012.89 1013.34 1013.70 1014.20 1014.81 1015.01 1015.06 1014.68 1014.16 1014.14 1013.85 1013.85 1014.05 1014.18 1014.25 1014.19 1014.15 1014.50 1014.80 1015.49 1017.02 1018.87 1020.08 1021.02 1021.81 1022.38 1022.92 1023.19 1023.36 1023.62 1023.75 1023.89 1024.13 1024.31 1024.53 1025.00 1025.55 1026.15 1026.78 1027.27
1003.71 1003.40 1003.30 1003.46 1003.87 1004.47 1005.26 1006.25 1007.37 1008.59 1009.25 1010.20 1011.02 1012.24 1012.78 1013.25 1013.53 1013.86 1013.99 1014.11 1013.99 1013.53 1013.51 1013.45 1013.55 1013.71 1014.12 1014.12 1014.07 1014.13 1014.47 1015.01 1015.68 1017.35 1018.81 1020.03 1020.98 1021.96 1022.61 1023.11 1023.66 1024.04 1024.39 1024.75 1025.11 1025.32 1025.57 1025.85 1026.12 1026.46 1027.06 1027.63 1027.87 1028.36
1002.26 1002.18 1002.06 1001.88 1001.94 1002.59 1003.57 1005.08 1006.34 1007.77 1008.84 1010.07 1011.36 1012.59 1013.01 1013.24 1013.23 1012.99 1012.74 1012.92 1012.88 1012.63 1012.93 1013.14 1013.58 1013.67 1014.03 1014.19 1014.42 1015.00 1015.58 1016.00 1017.72 1019.59 1020.31 1021.32 1022.09 1022.93 1023.45 1023.97 1024.57 1025.27 1025.90 1026.27 1026.64 1026.75 1027.05 1027.29 1027.90 1028.25 1028.45 1028.69 1029.05 1029.74
1002.34 1002.51 1002.60 1002.07 1001.88 1002.08 1003.38 1005.05 1006.12 1007.78 1009.33 1010.86 1011.65 1012.78 1013.58 1013.46 1013.34 1013.02 1012.93 1012.85 1012.95 1012.75 1012.90 1013.55 1013.94 1014.09 1014.59 1015.07 1015.48 1016.13 1017.08 1018.13 1019.39 1020.33 1021.61 1022.42 1023.22 1023.81 1024.44 1025.21 1025.98 1026.62 1026.96 1027.22 1027.56 1028.00 1028.39 1028.64 1028.88 1029.38 1029.54 1029.64 1029.84 1030.20
1003.00 1003.42 1004.08 1003.74 1003.88 1004.64 1005.24 1005.85 1007.24 1008.48 1010.26 1011.60 1012.82 1014.27 1014.14 1014.12 1014.02 1013.58 1013.32 1013.34 1013.27 1013.20 1013.41 1013.86 1014.38 1015.03 1015.59 1016.01 1016.99 1017.92 1019.03 1019.87 1021.18 1022.00 1022.81 1023.47 1024.19 1024.87 1025.69 1026.35 1026.97 1027.46 1027.91 1028.37 1028.72 1029.01 1029.32 1029.57 1029.73 1029.96 1029.98 1030.03 1030.20 1030.40
1003.65 1004.74 1005.01 1005.01 1005.31 1005.41 1005.50 1006.85 1008.52 1010.51 1012.10 1013.49 1014.54 1014.56 1014.64 1014.73 1014.52 1014.23 1014.05 1013.97 1013.70 1013.69 1014.21 1014.70 1015.47 1016.04 1016.69 1017.86 1019.00 1019.84 1020.81 1021.63 1022.34 1023.20 1023.95 1024.63 1025.32 1025.98 1026.52 1026.98 1027.49 1027.95 1028.42 1028.81 1029.13 1029.39 1029.67 1029.71 1029.81 1030.00 1030.30 1030.32 1030.37 1030.53
1004.81 1005.47 1005.88 1005.82 1005.90 1006.14 1007.08 1008.38 1010.23 1011.66 1013.15 1014.16 1014.72 1015.31 1015.43 1015.49 1015.19 1015.01 1014.86 1014.55 1014.27 1014.42 1014.91 1015.76 1016.25 1017.50 1018.65 1019.47 1020.69 1021.48 1022.15 1022.83 1023.49 1024.03 1024.79 1025.58 1025.89 1026.43 1026.85 1027.30 1027.66 1027.96 1028.29 1028.63 1028.94 1029.21 1029.47 1029.75 1029.83 1029.83 1029.88 1030.07 1030.33 1030.53
1005.55 1005.98 1006.34 1006.48 1006.80 1007.61 1009.01 1010.68 1011.22 1012.88 1014.31 1014.79 1015.37 1015.64 1015.96 1016.06 1015.98 1015.78 1015.44 1015.08 1014.84 1014.98 1015.69 1017.03 1018.17 1019.31 1020.43 1020.92 1021.46 1021.90 1022.44 1023.01 1023.93 1024.82 1025.57 1025.86 1026.22 1026.64 1027.04 1027.39 1027.70 1027.98 1028.24 1028.53 1028.78 1028.97 1029.20 1029.35 1029.57 1029.68 1029.79 1029.98 1030.30 1030.47
1005.76 1005.94 1006.10 1005.97 1005.91 1007.49 1009.41 1010.92 1011.28 1012.60 1014.19 1015.04 1015.48 1016.12 1016.58 1016.82 1016.80 1016.70 1016.39 1016.11 1016.12 1016.65 1017.89 1018.96 1019.72 1020.21 1020.88 1021.15 1021.35 1021.88 1022.51 1023.11 1023.86 1024.92 1025.95 1026.39 1026.56 1026.85 1027.18 1027.43 1027.66 1027.92 1028.22 1028.55 1028.94 1029.19 1029.53 1029.86 1029.99 1030.12 1030.30 1030.56 1030.90 1031.16
1006.47 1006.77 1006.34 1006.34 1007.33 1008.58 1010.40 1011.54 1012.46 1013.31 1014.25 1015.12 1015.85 1016.33 1017.11 1017.31 1017.62 1017.66 1017.71 1017.65 1018.08 1019.20 1020.05 1020.24 1020.36 1020.73 1020.88 1021.16 1021.54 1022.09 1022.77 1023.23 1023.99 1024.56 1025.42 1026.37 1026.85 1027.14 1027.55 1027.75 1027.89 1028.25 1028.62 1029.10 1029.55 1030.09 1030.24 1030.55 1030.65 1030.85 1031.03 1031.31 1031.59 1031.75
1007.12 1007.18 1007.57 1007.77 1008.94 1010.03 1011.27 1011.95 1012.56 1013.46 1014.37 1015.17 1015.85 1016.60 1017.63 1018.27 1018.64 1018.67 1018.68 1019.05 1020.10 1020.66 1020.67 1020.68 1020.86 1021.19 1021.42 1021.84 1022.20 1022.55 1023.02 1023.63 1024.29 1024.98 1025.61 1026.34 1027.25 1027.83 1028.12 1028.40 1028.55 1029.00 1029.39 1029.84 1030.22 1030.88 1031.02 1031.06 1031.27 1031.50 1031.75 1032.03 1031.77 1031.71
1007.29 1007.67 1008.43 1009.10 1010.26 1011.33 1012.71 1012.60 1013.15 1013.89 1014.86 1015.76 1016.31 1017.43 1018.40 1018.88 1018.93 1018.83 1019.94 1020.67 1021.03 1020.95 1020.89 1021.06 1021.29 1021.47 1021.83 1022.32 1022.61 1023.14 1023.54 1024.11 1025.07 1025.82 1026.39 1026.94 1027.57 1027.97 1028.35 1028.75 1028.91 1029.49 1029.94 1030.38 1030.53 1030.92 1031.31 1031.63 1031.97 1032.20 1032.38 1032.50 1032.49 1032.38
1007.86 1009.08 1010.05 1010.69 1011.25 1012.51 1012.89 1013.35 1013.63 1014.54 1015.45 1016.28 1017.21 1018.31 1018.89 1019.14 1019.40 1020.10 1021.11 1021.57 1021.58 1021.39 1021.51 1021.69 1021.79 1022.28 1022.76 1023.22 1023.84 1024.29 1024.60 1025.02 1025.85 1026.81 1026.97 1027.36 1028.18 1028.85 1029.02 1029.37 1029.60 1029.87 1030.17 1030.49 1031.05 1031.51 1031.88 1032.16 1032.39 1032.57 1032.70 1032.81 1032.88 1032.90
1009.30 1011.72 1011.88 1012.26 1012.53 1013.17 1013.78 1014.40 1015.19 1015.70 1016.83 1017.21 1017.97 1018.63 1018.88 1019.22 1020.35 1021.19 1021.59 1022.03 1022.18 1022.27 1022.54 1022.30 1022.47 1022.81 1023.52 1024.37 1024.98 1025.21 1025.26 1025.42 1026.20 1027.30 1027.94 1027.94 1028.74 1029.38 1029.90 1030.16 1030.37 1030.53 1030.65 1031.20 1031.73 1032.05 1032.37 1032.60 1032.78 1032.90 1033.01 1033.13 1033.21 1033.19
1011.56 1013.24 1013.23 1013.48 1013.66 1013.92 1014.77 1015.70 1016.19 1016.84 1017.27 1018.12 1018.57 1018.89 1019.22 1019.99 1021.07 1021.56 1021.68 1021.90 1022.45 1022.78 1023.02 1022.98 1023.28 1023.96 1024.56 1024.78 1025.44 1025.82 1026.14 1026.18 1026.64 1027.62 1028.48 1028.56 1028.82 1029.35 1030.04 1030.53 1030.82 1031.26 1031.07 1031.27 1032.14 1032.58 1032.82 1032.98 1033.09 1033.17 1033.26 1033.29 1033.30 1033.34
1013.79 1014.63 1014.62 1014.95 1014.96 1015.04 1016.12 1016.62 1017.09 1017.55 1018.30 1018.89 1019.26 1019.87 1020.35 1021.54 1021.92 1021.81 1021.76 1022.06 1022.30 1022.60 1022.81 1023.08 1023.37 1023.99 1024.90 1025.66 1026.20 1026.57 1026.81 1026.98 1027.37 1028.22 1028.94 1029.15 1029.41 1029.61 1029.95 1030.62 1030.65 1031.07 1031.34 1031.80 1032.07 1032.53 1032.93 1033.10 1033.23 1033.40 1033.50 1033.52 1033.54 1033.40
1015.44 1016.15 1016.39 1017.20 1017.16 1017.54 1018.25 1018.76 1019.14 1019.50 1019.54 1019.47 1019.75 1021.18 1021.78 1021.95 1022.39 1022.21 1022.01 1022.01 1022.11 1022.69 1023.52 1024.08 1024.37 1024.75 1025.57 1026.34 1026.86 1027.34 1028.10 1028.41 1028.78 1029.21 1029.59 1030.06 1030.39 1030.51 1030.67 1030.94 1030.86 1030.93 1031.99 1032.39 1032.64 1032.24 1032.11 1032.42 1033.12 1033.54 1033.67 1033.71 1033.64 1032.87
1016.87 1017.66 1017.91 1019.31 1019.28 1019.86 1020.61 1020.91 1021.11 1020.88 1020.73 1020.75 1021.46 1022.07 1022.40 1022.60 1022.75 1022.52 1022.36 1022.48 1022.73 1023.17 1024.40 1025.33 1026.42 1026.64 1027.12 1027.79 1028.27 1028.46 1028.68 1029.22 1029.66 1030.27 1030.62 1031.43 1031.58 1031.69 1031.67 1031.91 1032.40 1032.62 1032.77 1032.67 1031.85 1031.98 1031.60 1031.68 1031.66 1032.66 1033.07 1033.29 1033.04 1032.96
1018.66 1018.73 1019.71 1020.71 1021.51 1022.08 1022.19 1022.10 1021.94 1021.83 1021.54 1021.71 1021.84 1022.70 1023.23 1023.54 1023.34 1023.03 1023.06 1023.32 1023.71 1024.37 1025.17 1025.74 1026.64 1027.08 1028.06 1028.54 1029.56 1029.92 1030.01 1029.98 1030.21 1030.40 1030.87 1031.47 1031.50 1031.75 1032.08 1032.51 1032.91 1033.36 1033.21 1033.16 1032.42 1031.95 1031.68 1032.44 1031.79 1032.58 1033.45 1033.38 1033.50 1033.76
1019.23 1019.85 1020.96 1021.83 1022.58 1022.60 1022.59 1022.56 1022.12 1022.18 1022.67 1022.84 1023.17 1024.12 1024.74 1024.45 1024.14 1024.23 1024.24 1024.47 1024.74 1025.23 1026.00 1027.23 1028.05 1028.22 1028.73 1029.40 1029.71 1029.94 1030.48 1030.42 1030.38 1030.38 1030.46 1030.83 1031.47 1032.07 1032.52 1033.04 1033.16 1033.47 1033.53 1033.53 1033.10 1032.92 1032.97 1033.29 1033.84 1033.95 1033.98 1033.82 1033.73 1033.72
1020.63 1021.49 1021.96 1022.99 1023.23 1022.90 1022.93 1023.54 1023.68 1023.84 1024.20 1024.36 1024.87 1025.02 1025.58 1025.66 1025.90 1025.58 1025.63 1025.50 1025.67 1026.21 1026.95 1027.40 1028.15 1028.84 1029.12 1029.13 1029.22 1029.37 1029.61 1030.44 1030.96 1031.07 1031.04 1031.48 1032.25 1032.90 1032.94 1033.03 1033.43 1033.52 1033.93 1033.71 1033.53 1033.47 1033.56 1034.13 1034.19 1034.12 1034.05 1033.89 1033.70 1033.48
1021.72 1021.92 1022.24 1022.82 1023.18 1023.31 1023.54 1023.88 1024.59 1024.96 1024.99 1025.55 1025.89 1026.38 1026.93 1026.78 1026.76 1026.52 1026.05 1025.95 1026.03 1026.38 1027.21 1028.00 1028.33 1028.64 1029.07 1029.31 1029.55 1029.89 1030.38 1031.04 1031.25 1031.01 1031.57 1031.83 1032.24 1032.62 1033.23 1033.45 1033.54 1033.62 1033.90 1033.84 1033.82 1033.82 1033.97 1034.33 1034.29 1034.17 1034.02 1033.83 1033.55 1033.22
Wind_Speed
17 16 16 14 14 13 9 10 11 12 12 14 14 13 13 12 11 6 2 8 4 3 5 4 3 2 5 1 3 8 6 5 5 5 3 3 3 4 3 2 2 4 4 4 3 4 6 15 8 3 4 9 7 11
16 16 16 14 10 9 10 12 12 14 15 14 13 12 11 10 12 7 2 5 4 2 5 2 6 6 7 8 1 3 2 3 3 4 1 2 2 3 3 3 5 1 3 3 4 1 8 11 12 12 11 8 10 10
17 16 15 12 11 11 13 14 15 15 14 14 14 14 15 14 13 10 3 4 3 2 5 3 11 10 8 10 7 2 2 2 1 2 4 2 3 1 2 2 3 7 7 5 4 6 10 11 11 13 13 14 13 13
18 17 14 13 13 14 14 15 14 13 15 15 16 17 17 16 15 14 4 5 3 2 2 8 2 6 5 8 9 10 2 1 1 0 3 2 3 2 2 3 3 3 9 9 4 7 8 13 10 9 13 13 15 16
19 16 14 13 14 15 16 15 14 15 15 15 16 14 12 18 17 9 3 6 5 4 3 5 6 6 6 7 8 7 6 4 0 2 2 3 2 2 3 3 3 6 4 4 4 7 7 7 10 10 13 14 14 14
16 15 14 15 16 16 14 15 15 14 14 14 14 14 12 15 15 4 1 3 8 3 2 4 4 4 2 4 6 5 4 3 2 2 3 3 3 3 2 3 2 5 9 10 4 8 11 11 11 11 14 14 15 15
15 15 16 17 15 15 16 15 14 14 14 13 12 10 11 16 8 4 3 3 15 6 2 4 5 4 1 3 2 2 3 2 3 3 2 2 3 3 2 2 5 7 7 8 9 5 8 14 8 11 14 14 16 15
16 17 18 17 16 17 16 15 15 15 13 12 9 7 13 18 10 1 1 14 12 3 2 3 5 4 1 1 2 2 3 1 3 2 2 1 2 2 3 3 5 8 6 11 11 13 11 10 12 12 11 10 13 13
18 18 18 18 18 17 16 16 15 15 14 12 8 13 5 3 2 3 14 16 2 2 3 2 2 4 0 0 1 2 1 1 2 2 1 1 2 3 4 5 7 9 7 8 8 10 10 12 11 11 10 11 12 12
19 19 20 18 17 18 17 16 16 16 14 9 5 3 2 3 21 15 3 2 2 2 2 3 2 3 2 2 2 2 1 2 3 1 4 3 2 5 5 6 6 7 9 10 2 7 7 9 9 10 11 10 11 10
22 21 20 20 20 18 17 17 18 17 14 3 3 2 2 17 4 2 3 3 3 3 4 4 5 3 2 1 2 2 3 2 2 2 1 2 2 3 6 6 6 7 8 9 9 9 9 8 8 9 10 10 10 10
22 23 23 22 20 20 20 20 21 13 5 6 7 5 3 2 2 5 5 4 4 6 3 4 4 4 2 1 3 3 3 2 3 2 3 2 1 7 6 6 7 7 8 9 8 10 10 10 10 10 9 9 9 7
25 23 21 20 21 22 23 25 25 20 20 4 4 4 4 3 4 7 8 4 4 4 4 3 3 3 1 2 2 2 2 1 2 4 3 2 5 6 6 6 7 6 7 9 9 9 10 11 10 8 8 5 6 7
16 11 5 13 19 20 23 27 33 26 5 3 5 5 4 3 4 5 4 5 4 2 5 4 2 2 2 2 1 3 2 1 2 1 5 3 5 5 5 6 5 4 6 7 6 7 8 8 6 6 6 3 5 5
22 22 19 21 21 20 31 33 19 4 5 4 3 3 3 2 1 1 1 3 1 1 4 3 2 1 1 3 0 3 2 3 5 5 3 3 5 6 6 6 6 5 4 6 4 5 4 5 6 5 4 3 5 4
22 17 10 21 24 24 18 14 6 3 4 4 6 3 2 3 0 1 2 3 2 1 2 2 2 3 0 3 2 4 5 5 4 2 2 4 4 5 5 5 5 5 5 4 3 3 3 4 4 3 3 4 3 3
14 4 11 15 15 13 15 6 5 6 5 4 1 1 2 2 2 2 2 1 2 1 2 3 4 4 2 3 1 1 3 3 3 2 2 4 6 6 5 5 5 5 5 5 3 3 3 3 3 2 3 1 1 3
5 11 18 15 9 7 4 5 5 5 6 3 3 1 2 2 1 2 2 2 1 2 2 2 2 4 4 4 3 3 2 1 2 4 3 3 5 5 5 6 5 5 5 4 3 3 3 3 2 2 3 4 3 3
9 9 11 8 7 4 4 3 3 5 2 2 2 1 3 1 2 2 2 3 2 2 4 3 5 2 3 3 3 2 4 3 6 3 2 3 5 6 5 5 5 3 4 3 3 2 2 2 1 0 1 3 3 3
14 13 11 8 5 4 5 3 3 5 3 2 3 3 3 2 1 2 4 5 3 3 5 4 2 2 3 3 3 6 5 7 8 7 3 2 1 5 4 4 3 4 3 5 3 3 2 2 2 2 2 2 2 1
8 5 11 8 5 6 5 3 4 3 3 3 2 2 2 2 3 3 3 3 4 3 2 1 2 2 3 3 6 7 6 6 4 3 5 4 1 4 3 2 4 2 3 2 3 1 2 1 1 1 2 1 0 2
2 2 3 4 4 4 5 3 4 3 4 3 2 3 3 2 2 1 1 5 2 2 2 2 5 4 5 6 4 5 7 8 6 6 7 7 4 3 2 2 3 2 2 2 2 3 1 1 1 2 1 1 2 2
6 3 4 3 5 5 1 1 4 2 5 3 2 3 2 2 1 1 4 1 2 1 1 3 4 6 9 6 9 7 6 8 6 5 4 4 4 3 4 3 2 4 3 1 1 3 2 1 1 1 1 2 2 2
6 5 4 3 3 3 2 2 2 3 3 2 3 3 1 3 1 4 2 1 2 1 3 7 7 7 6 6 4 3 4 5 6 5 3 6 5 3 3 3 2 2 1 2 2 2 1 1 2 2 2 2 2 1
6 5 3 4 2 4 4 2 2 4 3 2 4 0 2 2 3 1 4 3 1 3 2 3 4 4 5 3 3 3 3 5 7 5 3 3 5 3 3 3 3 2 1 3 1 1 1 1 1 1 1 0 2 3
6 3 3 1 1 4 3 4 3 5 4 2 2 1 3 4 3 3 3 4 3 3 4 5 5 5 3 2 4 2 1 2 6 5 1 1 2 4 4 4 2 3 2 3 4 2 0 0 0 0 1 2 2 1
4 2 2 3 2 2 4 3 3 5 4 4 3 2 4 3 3 3 1 1 3 3 3 3 5 5 6 4 4 4 4 4 5 5 3 4 3 1 4 4 3 3 2 3 3 4 3 2 1 1 2 3 3 3
2 3 4 3 5 4 4 4 3 2 0 2 3 3 5 6 4 2 1 1 5 8 7 6 5 5 6 5 5 7 6 6 7 6 5 5 4 3 4 3 3 5 3 2 4 3 3 4 4 3 3 3 4 2
3 2 4 6 5 5 4 2 1 1 2 2 5 3 2 2 1 2 2 2 4 8 7 7 4 5 7 6 5 4 4 4 5 5 3 1 3 3 2 2 3 2 2 1 2 4 5 4 4 4 4 4 3 2
1 1 5 3 5 3 3 2 2 2 2 2 2 3 3 3 4 3 3 3 4 5 4 5 4 5 6 6 4 4 3 2 2 5 5 4 5 2 3 2 2 1 2 3 3 3 5 5 4 4 4 4 3 3
1 4 5 4 3 2 3 2 2 2 3 4 3 5 2 1 2 5 5 3 5 7 8 5 4 2 7 5 4 4 1 2 1 1 3 4 4 4 3 2 2 2 2 3 3 2 1 2 2 2 4 4 6 3
4 3 5 4 1 3 3 3 2 3 3 4 4 3 4 5 4 4 3 2 4 4 3 5 6 3 3 2 2 1 3 5 3 3 6 4 3 2 2 2 2 3 3 3 3 2 1 0 2 2 3 6 5 5
3 3 3 4 3 1 2 5 4 2 4 2 2 2 1 4 4 4 2 3 1 4 5 3 3 4 5 4 6 5 6 4 5 6 5 6 5 4 3 2 3 3 5 3 2 1 1 1 2 3 5 5 6 7
Wind_Direction
235 233 238 243 241 243 240 248 251 253 258 264 266 262 253 249 240 170 155 176 164 187 277 261 277 300 321 335 337 318 343 359 341 24 6 358 8 356 359 286 183 186 173 211 203 227 262 352 331 7 46 47 16 36
238 243 248 228 235 231 248 249 250 257 260 261 262 253 247 246 245 172 137 179 145 184 245 275 253 228 212 226 264 306 257 311 350 322 344 315 332 350 342 280 345 333 14 286 194 164 40 20 42 39 69 55 41 57
237 237 250 232 230 245 248 250 254 254 259 265 260 251 241 239 238 182 128 129 153 263 284 287 257 268 221 214 170 251 276 234 257 188 303 333 291 298 272 62 303 347 22 307 170 55 55 36 49 46 46 58 50 54
236 247 224 234 243 247 247 256 262 265 263 261 263 255 243 222 220 177 146 159 112 124 264 277 302 271 248 205 189 208 201 48 325 355 283 287 273 227 42 82 73 326 317 319 68 124 92 47 34 43 59 57 59 56
240 231 230 239 244 246 252 255 256 260 262 266 268 261 237 210 206 169 129 183 178 156 217 273 296 254 239 149 176 198 216 231 56 323 275 261 261 307 84 96 44 340 341 328 13 342 66 59 47 38 64 62 58 62
228 229 238 242 245 248 247 250 256 257 262 261 261 268 208 198 180 133 150 198 188 114 331 316 292 289 356 149 157 162 173 182 196 239 248 281 0 313 74 77 16 351 337 19 40 48 86 92 64 57 70 68 67 66
227 235 240 245 246 246 246 255 252 254 256 255 255 248 189 177 149 159 195 192 169 134 221 287 303 283 332 111 95 115 160 197 173 233 247 250 37 30 44 82 5 356 355 26 12 196 71 46 73 68 69 71 72 70
236 241 243 250 248 248 246 245 247 247 245 239 246 226 159 156 114 157 344 140 129 113 220 264 270 334 198 146 108 179 140 213 219 253 297 13 61 66 82 68 35 8 7 34 44 54 70 75 69 67 75 77 72 68
243 244 246 250 248 246 244 238 231 230 231 231 224 117 106 88 142 137 140 140 120 174 186 208 243 258 283 136 102 49 113 125 262 238 174 78 40 59 55 55 37 27 22 343 70 63 61 66 64 57 59 67 77 72
245 249 250 248 248 247 240 225 218 219 219 160 97 94 147 189 122 97 93 130 180 221 200 223 176 256 132 144 131 109 64 227 231 184 98 64 77 91 74 60 43 31 36 20 78 35 53 60 63 62 63 65 68 71
252 252 253 250 245 235 221 211 204 205 171 87 136 131 124 152 80 122 150 178 144 214 210 226 190 164 148 168 131 223 170 206 238 148 202 139 137 131 100 77 53 49 49 56 67 65 61 66 74 76 70 69 73 75
263 258 254 246 237 221 208 201 198 190 134 138 109 76 75 114 160 154 172 149 195 222 202 187 199 182 145 112 194 189 192 158 231 85 90 278 124 121 110 83 61 60 72 71 66 71 69 69 70 79 79 73 70 75
263 256 244 233 225 221 213 195 185 140 137 123 81 155 174 165 176 160 173 180 182 198 182 174 149 131 125 198 207 189 216 186 119 42 219 218 143 119 110 105 85 74 83 82 72 74 77 74 61 75 83 62 78 71
239 113 87 201 200 194 181 173 150 145 103 119 133 146 199 178 219 193 181 165 215 178 157 120 105 151 164 159 90 106 250 147 84 282 229 164 136 115 94 97 102 61 64 79 71 69 68 71 64 56 66 77 91 80
89 76 57 73 91 125 139 133 115 57 86 106 128 137 189 227 258 135 120 109 32 84 105 96 80 131 112 96 270 124 73 244 209 232 204 149 120 118 97 90 96 86 58 55 45 67 68 74 76 67 30 62 95 100
87 65 61 76 83 80 88 86 61 90 74 73 47 107 217 85 39 60 47 92 7 103 90 77 128 76 42 134 125 203 152 220 238 213 188 118 87 90 110 116 122 131 125 127 110 111 95 84 96 110 45 44 52 112
77 60 76 82 79 65 49 80 65 57 85 89 67 120 113 77 97 79 53 359 311 110 149 124 91 190 108 75 171 185 190 214 183 122 78 106 138 140 140 133 134 132 130 132 129 132 134 143 134 99 110 270 157 144
69 116 119 104 74 33 39 50 74 54 59 41 83 8 58 50 54 46 351 323 347 116 90 141 115 80 167 173 249 204 132 129 59 111 116 117 118 125 136 140 143 140 144 141 129 138 122 137 166 219 201 191 173 183
111 109 120 158 170 119 109 71 83 105 103 128 101 85 76 87 38 340 312 342 54 75 90 46 73 138 216 200 165 187 132 132 130 121 106 97 131 138 133 122 131 129 145 144 163 161 154 176 132 58 260 199 210 208
72 51 49 44 97 81 77 49 69 82 108 178 67 51 89 100 294 13 21 13 33 46 47 52 170 204 190 209 171 130 123 127 128 123 108 78 101 121 132 146 158 149 125 115 90 99 104 75 30 36 42 61 97 286
60 345 15 26 43 62 87 90 57 96 113 83 152 82 70 36 35 21 18 353 58 41 77 221 68 62 77 106 103 116 114 125 126 131 145 137 132 123 118 107 114 103 122 133 132 95 85 130 265 41 66 50 270 243
97 138 80 35 66 57 71 13 113 131 78 118 93 80 71 57 27 356 321 49 63 242 165 129 127 117 98 97 92 103 118 101 99 92 81 111 120 111 99 138 118 113 106 160 144 155 188 280 11 42 70 284 307 323
115 66 41 55 75 63 128 92 84 88 108 134 78 75 27 53 242 95 67 110 217 255 140 90 83 95 109 103 100 91 104 117 103 104 95 88 88 81 96 64 80 121 111 316 133 144 169 328 47 55 10 37 26 352
38 55 58 69 82 115 92 56 83 95 88 100 99 112 177 166 111 56 108 272 258 358 101 118 119 104 88 74 70 69 74 98 99 73 57 111 95 47 66 80 71 79 127 124 94 96 64 49 340 73 47 60 16 343
79 2 53 54 18 98 95 62 45 71 109 148 98 87 223 117 86 92 173 223 150 125 107 83 80 89 111 97 79 68 32 129 126 112 356 94 108 78 62 56 44 25 73 85 40 52 316 15 25 100 116 143 264 286
75 320 63 127 300 106 167 119 157 158 126 100 179 114 60 96 95 211 215 179 158 162 161 141 129 108 73 85 126 110 122 94 105 92 37 87 142 142 161 156 156 308 14 115 128 124 101 332 189 77 314 296 262 233
82 329 29 41 330 64 57 30 60 91 98 148 182 96 81 104 229 261 321 224 136 193 135 135 138 128 133 117 88 62 60 59 84 106 97 62 52 65 145 155 184 213 144 129 131 144 165 191 234 283 300 310 261 220
119 44 116 334 51 23 103 55 53 69 259 337 74 64 129 167 201 272 284 42 120 99 85 61 53 87 101 95 110 108 81 90 92 96 93 68 53 45 50 59 64 103 101 128 145 140 151 166 181 198 215 249 271 262
46 330 77 39 43 43 42 86 179 334 352 78 113 144 168 60 282 302 67 89 119 108 101 100 45 75 77 67 51 38 83 120 103 89 81 242 336 301 18 56 67 56 47 92 226 177 187 179 196 205 223 227 259 286
342 73 92 71 73 48 271 174 249 269 350 99 102 83 53 18 355 10 50 45 96 111 123 119 127 122 129 122 109 49 14 53 139 137 155 206 219 179 143 124 91 45 43 64 33 347 12 34 21 23 17 358 5 346
52 68 73 66 87 263 230 296 331 83 42 37 9 92 127 127 64 35 38 40 100 112 114 101 70 42 122 131 128 117 21 331 58 128 114 106 116 126 142 150 151 129 99 95 81 75 64 31 30 346 328 315 313 314
39 92 120 106 158 274 38 65 70 66 358 33 358 53 20 51 41 333 357 31 94 93 75 122 127 179 189 125 94 70 107 119 134 122 119 115 111 133 133 121 120 111 98 87 74 77 62 20 296 285 284 294 297 295
69 70 57 91 71 43 289 87 33 58 25 44 14 133 141 138 162 247 325 24 134 138 142 140 107 98 110 103 108 98 89 100 115 102 103 110 126 132 124 112 104 99 102 98 82 74 349 307 291 291 296 290 298 303